Погода в Балашове

Хотите узнать прогноз погоды в Балашове? Тогда Вам сюда: Погода в Балашове

Поиск расширенной информации на нашем сайте:

Полезная информация:

Новости сайта



02.01.2020
Опубликован Долгосрочный прогноз погоды по городам России и ближнего зарубежья на январь 2020 года.
Карты: Прогноз на январь и февраль 2020 года, Сравнение прогнозируемой аномалии приземной температуры воздуха на январь 2020 года по разным моделям.




Погода в Балашове - сегодня

Время (UTC), дата Ветер
(°,м/с) 
Видим.   Явления Облачность Т
(°С)
Тd
(°С)
f(%) Тe
(°С)
Pmin
(гПа)
dP
(гПа)
Po
(мм)
O2
(г/м3)
Тmin Tmax R s Состояние
почвы
21 22.10.20 170 (Ю) 20000 м    10/0 средняя 
[Ac und]
+6.1 +2.6 78 +6  1018.4  -1.6  749  295           
00 23.10.20 180 (Ю) 20000 м    10/0 средняя 
[Ac und]
+6.8 +4.2 83 +7  1016.7  -1.7  748  293           
03 23.10.20 170 (Ю) 10 км  {ливн. осадки}  3/3 600 м кучево-дожд. 
[Cb cap]
+5.2 +4.8 97 +5  1014.4  -2.3  746  294  +5.2    0.3     
06 23.10.20 230 (ЮЗ) 20000 м  {ливн. осадки}  9/0 средняя 
[Ac trans]
+9.7 +6.4 80 +9  1013.3  -0.8  746  289  +4.9         
09 23.10.20 250 (З) 20000 м    9/0 средняя 
[Ac trans]
+13.6 +7.2 65 +13  1013  746  285           
12 23.10.20 260 (З) 5{10}  20000 м    9/0 средняя, верхняя 
[Ac trans|Ci fib]
+16.2 +7.4 56 +16  1012.5  -0.3  745  282           
15 23.10.20 240 (ЮЗ) 20000 м    10/0 средняя, верхняя 
[Ac trans|Ci fib]
+14 +7.4 64 +15  1012.8  0.2  746  284    +16.4       
18 23.10.20 220 (ЮЗ) 20000 м    10/0 средняя, верхняя 
[Ac trans|Ci fib]
+12.6 +7.4 71 +12  1012.5  -0.3  745  286           
21 23.10.20 210 (ЮЗ) 20000 м    10/6 600 м кучево-дожд., средняя 
[Cb cap|Ac trans]
+12.6 +8.2 75 +12  1011.6  -0.9  745  285           
00 24.10.20 220 (ЮЗ) 20000 м    10/10 600 м 
[Sc diur, vesp]
+12.2 +8.6 79 +12  1009.9  -1.8  743  285           
03 24.10.20 230 (ЮЗ) 20000 м    10/0 средняя 
[Ac trans]
+12 +8.5 79 +12  1009.7  -0.1  743  285  +11.5         
06 24.10.20 260 (З) 20000 м    3/0 средняя 
[Ac trans]
+13.8 +8.9 72 +13  1010.3  0.7  744  284           
09 24.10.20 310 (СЗ) 20000 м    10/0 средняя, верхняя 
[Ac trans|Ci fib]
+16 +10.2 68 +18  1010.5  0.3  744  281           
12 24.10.20 260 (З) 20000 м    10/8 600 м верхняя 
[Sc|Ci fib]
+16.5 +8.8 60 +17  1011  0.6  744  281           
15 24.10.20 тихо ()   20000 м    10/8 600 м верхняя 
[Sc|Ci fib]
+12 +7.3 73 +12  1011.9  0.6  745  286    +17.4       
18 24.10.20 160 (Ю) 20000 м    10/0 средняя, верхняя 
[Ac trans|Ci fib]
+8 +6.3 89 +8  1012.6  0.4  745  291           
21 24.10.20 160 (Ю) 20000 м    10/0 верхняя 
[Ci fib]
+8.8 +6.5 85 +9  1011.7  -0.8  744  290           
00 25.10.20 190 (Ю) 20000 м  слаб. ливневой дождь  10/8 600 м кучево-дожд., средняя 
[Cb cap|Ac trans]
+8.3 +7 92 +9  1010.7  -0.8  744  290           
03 25.10.20 190 (Ю) 10 км  слаб. ливневой дождь  10/0 кучево-дожд., средняя 
[Cb cap|Ac trans]
+9.4 +8.3 93 +9  1008.3  -2.6  742  288  +8.3       
06 25.10.20 210 (ЮЗ) 2000 м  в посл. час дождь{ливн. осадки}  10/10 100 м 
[St]
+11.2 +10.5 95 +13  1006.4  -1.8  741  285           
09 25.10.20 320 (СЗ) 8-13{13}  10 км  {дождь}  10/8 200 м средняя 
[St|Ac As]
+11.3 +11.1 99 +13  1007  0.6  741  285           
12 25.10.20 320 (СЗ) 6-10  20000 м  {дождь}  9/9 600 м 
[Sc]
+9.9 +7.5 85 +8  1011.6  4.4  744  288           
15 25.10.20 310 (СЗ) 3{10}  20000 м    8/8 1000 м 
[Sc]
+8.9 +7.1 88 +8  1015.3  3.6  747  290    +12.1     
18 25.10.20 300 (СЗ) 20000 м    ясно 
+7 +6.9 99 +6  1017.9  2.4  749  293           
21 25.10.20 310 (СЗ) 20000 м    ясно 
+4.8 +3.6 92 +4  1019.8  1.7  750  297           
Время (UTC), дата Ветер
(°,м/с) 
Видим.   Явления Облачность Т
(°С)
Тd
(°С)
f(%) Тe
(°С)
Pmin
(гПа)
dP
(гПа)
Po
(мм)
O2
(г/м3)
Тmin Tmax R s Состояние
почвы

Для получения пояснительной информации подведите курсор к названию столбца.

ПОГОДА в Балашове - архив

Всё, что Вы хотите узнать о погоде в Балашове - удобно и подробно!

Выберите нужную дату (начиная с 1 января 2019* года) и нажмите кнопку "Найти".
Будут отображены архивные сводки погоды по пункту Балашов, начиная с указанной даты.


Отображать данные в формате CSV (для использования в таблицах Excel)


Внимание! Наш архив погоды предназначен исключительно для личного некоммерческого использования в познавательных целях. Если Вам необходимы официальные справки о состоянии погоды (для производственных, юридических, коммерческих и т.п. целей), обращайтесь в органы Росгидромета.

*Примечание: данная дата относится к архиву по метеостанциям СССР (Россия, СНГ, Балтия).
Архив по метеостанциям Зарубежной Европы и Азии (кроме Китая) хранится 10 дней, по другим регионам земного шара (Китай, Африка, Америка, Австралия, Океания) - 1 день.

Балашов - район местоположения метеостанции


Название, широта, долгота, высота метеостанции:
Балашов 51.6°ш. 43.2°д. 159 м над ур. моря [Российская Федерация]

Дополнительная информация

В oтличие oт бoльшинства пoгoдных сайтoв мы публикуем пoдрoбную метеoинфoрмацию в детальнoм прoфессиoнальнoм фoрмате.

Характеристики температуры и влажнoсти вoздуха измеряются на высoте 2 м в тени вдали oт зданий и деревьев.
Скoрoсть ветра измеряется на высoте 10 м (на урoвне рoста челoвека скoрoсть ветра ниже в 1.5-2 раза). Если метеoстанция нахoдится в гoрoде или в лесу, тo скoрoсть ветра занижена на 2-4 м/с пo сравнению с oткрытым местoм. Скoрoсть ветра над акватoриями крупных рек и oзёр, а также на вершинах хoлмoв на 2-5 м/с выше, чем в oбычных услoвиях.
Атмoсфернoе давление в разных тoчках местнoсти мoжет значительнo oтличаться oт давления на метеoстанции, в зависимoсти oт услoвий рельефа (при пoдъёме на 10 м давление пoнижается примернo на 1 мм рт.ст.).